Back to catalog

FENGYUN 1C DEB

AliveSSO
NORAD 37693·DEBRIS·🇨🇳 China

Launched May 10, 1999 from Taiyuan Satellite Launch Center

Loading…

Next Passes (next 24 hours)

TLE

AgingSource: Space-Track

Epoch: Sep 9, 2026, 05:13 UTC

1 37693U 99025ELJ 26252.21737476  .00000695  00000-0  41539-3 0  9992
2 37693  98.7055 247.5817 0072574  31.8225  27.8275 14.08989902659577

Track FENGYUN 1C DEB in real time with AllMySat

Download on the App Store